Weather History for Key West, FL

Change the Weather History Date:

Monday, January 28, 2013

  Actual Average Record
Temperature  
Mean Temperature 76 °F 70 °F  
Max Temperature 79 °F 75 °F 85 °F (1957)
Min Temperature 72 °F 65 °F 43 °F (1940)
Degree Days  
Heating Degree Days 0 1  
Month to date heating degree days 1 28  
Since 1 July heating degree days 5 46  
Cooling Degree Days 11 5  
Month to date cooling degree days 262 142  
Year to date cooling degree days 262 142  
Growing Degree Days 26 (Base 50)    
Moisture  
Dew Point 67 °F    
Average Humidity 76    
Maximum Humidity 84    
Minimum Humidity 67    
Precipitation  
Precipitation 0.00 in 0.06 in 0.70 in (1947)
Month to date precipitation 0.29 1.85  
Year to date precipitation 0.29 1.85  
Snow  
Snow 0.00 in - - ()
Month to date snowfall 0.0  
Since 1 July snowfall 0.0  
Snow Depth 0.00 in    
Sea Level Pressure  
Sea Level Pressure 30.22 in    
Wind  
Wind Speed 13 mph (East)    
Max Wind Speed 17 mph    
Max Gust Speed 26 mph    
Visibility 10 miles    
Events      
T = Trace of Precipitation, MM = Missing Value Source: NWS Daily Summary

Daily Weather History Graph

Daily Weather History Graph

Search for Another Location

Airport:

Trip Planner

Search our weather history database for the weather conditions in past years. The results will help you decide how hot, cold, wet, or windy it might be!

Date:

Astronomy

Jan. 28, 2013 Rise Set
Actual Time 7:10 AM EST 6:09 PM EST
Civil Twilight 6:46 AM EST 6:33 PM EST
Nautical Twilight 6:19 AM EST 7:01 PM EST
Astronomical Twilight 5:51 AM EST 7:28 PM EST
Moon 7:45 PM EST (1/28) 7:50 AM EST (1/28)
Length of Visible Light 11h 47m
Length of Day
10h 59m
Full, 98% of the Moon is Illuminated
Jan 28
Full
Feb 3
Last Quarter
Feb 10
New
Feb 17
First Quarter
Feb 25
Full

Hourly Weather History & Observations

Time (EST) Temp. Dew Point Humidity Pressure Visibility Wind Dir Wind Speed Gust Speed Precip Events Conditions
12:42 AM 73.4 °F 66.2 °F 78% 30.22 in 10.0 mi East 9.2 mph - N/A   Overcast
12:53 AM 73.0 °F 66.9 °F 81% 30.22 in 10.0 mi East 9.2 mph - N/A   Mostly Cloudy
1:02 AM 73.4 °F 66.2 °F 78% 30.22 in 10.0 mi East 11.5 mph - N/A   Mostly Cloudy
1:09 AM 73.4 °F 66.2 °F 78% 30.22 in 10.0 mi East 11.5 mph 19.6 mph N/A   Mostly Cloudy
1:35 AM 73.4 °F 66.2 °F 78% 30.22 in 10.0 mi East 11.5 mph - N/A   Scattered Clouds
1:53 AM 73.0 °F 66.9 °F 81% 30.22 in 10.0 mi East 11.5 mph - N/A   Partly Cloudy
2:53 AM 73.0 °F 66.0 °F 79% 30.21 in 10.0 mi East 13.8 mph - N/A   Partly Cloudy
3:53 AM 73.0 °F 66.0 °F 79% 30.21 in 10.0 mi East 15.0 mph - N/A   Clear
4:53 AM 73.0 °F 66.0 °F 79% 30.20 in 10.0 mi East 11.5 mph - N/A   Clear
5:53 AM 73.0 °F 64.9 °F 76% 30.21 in 10.0 mi East 13.8 mph - N/A   Clear
6:53 AM 73.9 °F 64.9 °F 73% 30.23 in 10.0 mi ESE 13.8 mph - N/A   Partly Cloudy
7:53 AM 73.9 °F 64.9 °F 73% 30.25 in 10.0 mi ESE 17.3 mph 23.0 mph N/A   Partly Cloudy
8:53 AM 75.0 °F 64.9 °F 71% 30.26 in 10.0 mi ESE 15.0 mph - N/A   Partly Cloudy
9:53 AM 75.9 °F 66.9 °F 74% 30.27 in 10.0 mi ESE 15.0 mph - N/A   Partly Cloudy
10:53 AM 73.9 °F 66.9 °F 79% 30.28 in 10.0 mi East 11.5 mph 21.9 mph N/A   Partly Cloudy
11:53 AM 78.1 °F 66.9 °F 68% 30.27 in 10.0 mi East 16.1 mph - N/A   Partly Cloudy
12:53 PM 78.1 °F 66.9 °F 68% 30.25 in 10.0 mi East 15.0 mph - N/A   Clear
1:53 PM 79.0 °F 66.9 °F 66% 30.22 in 10.0 mi ESE 15.0 mph 20.7 mph N/A   Clear
2:53 PM 78.1 °F 66.9 °F 68% 30.20 in 10.0 mi East 15.0 mph - N/A   Scattered Clouds
3:53 PM 77.0 °F 66.9 °F 71% 30.19 in 10.0 mi East 13.8 mph - N/A   Clear
4:53 PM 75.9 °F 66.9 °F 74% 30.19 in 10.0 mi East 13.8 mph - N/A   Mostly Cloudy
5:53 PM 75.0 °F 66.9 °F 76% 30.20 in 10.0 mi East 12.7 mph - N/A   Mostly Cloudy
6:53 PM 75.0 °F 66.9 °F 76% 30.20 in 10.0 mi East 11.5 mph - N/A   Scattered Clouds
7:53 PM 73.9 °F 68.0 °F 82% 30.21 in 10.0 mi East 11.5 mph - N/A   Mostly Cloudy
8:02 PM 73.4 °F 68.0 °F 83% 30.21 in 10.0 mi East 11.5 mph - N/A   Mostly Cloudy
8:28 PM 73.4 °F 68.0 °F 83% 30.22 in 10.0 mi East 11.5 mph - N/A   Scattered Clouds
8:53 PM 73.9 °F 68.0 °F 82% 30.22 in 10.0 mi East 11.5 mph - N/A   Scattered Clouds
9:53 PM 73.9 °F 68.0 °F 82% 30.22 in 10.0 mi East 12.7 mph - N/A   Partly Cloudy
10:53 PM 73.9 °F 68.0 °F 82% 30.22 in 10.0 mi ESE 11.5 mph - N/A   Partly Cloudy
11:53 PM 73.9 °F 68.0 °F 82% 30.21 in 10.0 mi East 10.4 mph - N/A   Partly Cloudy